Location: Asarope
(8.2500°N, 4.4833°E)
Time: 01:34:03
(UTC+00:00)

Cosmos 2239 Rocket - Pass Details

Date: 07 June 2020
Orbit: 953 x 992 km, 82.9° (Epoch: 13 July)

Event Time Altitude Azimuth Distance (km) Brightness Sun altitude
Exits shadow 03:37:41 50° 218° (SW) 1,240 4.6 -24.3°
Maximum altitude 03:39:11 65° 274° (W) 1,079 4.4 -24.0°
Drops below altitude 10° 03:45:26 10° 355° (N) 2,747 7.1 -22.7°
Sets 03:47:59 0° 358° (N) 3,695 7.9 -22.1°
